Probability
100 100 100 100 97 94 90 94 94 90 90 90 90 74 81 81 100 97 90 100 100 100 100 100 100 100 100 100 100 100 100 100 100 100 100 100 100 100 100 100 97 100 100
100 100 100 100 97 90 90 90 90 90 90 81 71 68 65 61 84 84 87 97 100 100 100 100 100 100 100 100 100 100 100 100 100 100 100 100 100 97 100 100 94 94 100
100 100 100 100 100 90 87 84 90 90 84 77 68 55 45 39 29 71 71 71 97 100 100 100 100 100 100 100 100 100 100 100 100 100 100 100 94 81 87 94 94 84 58
100 100 100 100 100 100 100 100 94 87 94 90 71 55 52 68 65 74 71 71 74 87 100 100 100 100 100 100 100 100 100 100 100 100 100 100 94 71 55 65 77 68 39
100 100 100 100 94 100 100 97 97 100 97 100 97 87 77 77 84 74 71 65 71 87 87 97 100 97 97 97 97 100 100 100 100 100 100 97 97 90 35 16 16 23 23
94 94 94 90 71 68 77 87 90 87 94 94 58 39 71 65 87 77 84 77 81 84 87 68 84 94 97 97 97 97 97 100 100 100 97 97 97 97 68 19 6 10 13
74 74 77 77 39 29 61 39 39 32 39 52 48 26 32 35 29 48 74 68 84 97 90 74 71 77 87 94 97 97 97 97 100 100 97 97 97 100 97 68 19 3 6
81 35 81 45 48 77 35 45 61 32 16 29 35 3 0 3 45 6 29 58 68 94 90 71 65 61 77 90 90 94 94 97 100 100 100 100 100 100 100 94 61 3 0
42 42 26 32 48 42 58 77 81 77 58 55 42 26 6 6 6 29 61 52 81 94 97 77 71 58 68 77 90 84 90 90 97 97 100 100 94 87 84 90 77 42 3
45 32 16 16 48 71 74 71 65 84 68 45 42 61 39 23 10 0 3 23 58 87 100 90 94 81 81 84 74 77 81 90 97 97 97 97 94 87 71 68 87 87 42
81 52 42 29 61 74 74 74 65 61 58 48 45 45 35 48 42 16 0 10 35 84 97 97 94 97 97 81 68 48 52 74 71 74 77 71 81 77 61 65 74 84 81
94 77 58 68 45 55 58 61 61 48 52 58 52 29 23 23 42 35 6 13 6 39 87 97 97 97 90 81 45 16 26 16 13 10 10 13 19 23 26 32 45 65 68
87 87 23 42 45 52 58 61 68 65 58 58 58 52 42 23 19 13 16 23 16 35 81 90 97 94 90 68 23 10 6 0 0 0 0 0 0 0 0 0 0 3 13
90 71 42 39 55 58 26 55 52 55 58 61 35 48 45 19 16 16 13 6 10 23 55 71 90 84 87 65 3 3 0 0 0 0 0 0 0 0 0 0 0 0 0
77 84 71 48 42 55 61 61 52 65 65 58 42 48 48 48 42 32 13 16 6 0 23 77 94 87 74 19 0 3 0 0 0 0 0 0 0 0 0 0 0 0 0
65 61 84 68 61 52 61 68 61 61 77 71 74 71 61 48 48 45 39 26 26 13 19 81 90 87 61 13 0 0 0 0 0 0 0 0 0 0 0 0 0 0 0
19 32 55 68 71 65 58 71 68 71 65 61 61 39 35 42 48 42 45 48 39 45 16 48 71 58 16 3 0 0 0 0 0 0 0 0 0 0 0 0 0 0 0
0 0 3 23 26 19 58 61 55 48 52 52 42 32 16 0 16 26 16 26 32 42 29 16 32 23 6 0 0 0 0 0 0 0 0 0 0 0 0 0 0 0 0
0 0 0 0 0 10 32 61 58 55 55 35 23 16 10 3 0 6 6 10 19 13 10 3 0 6 0 0 0 0 0 0 0 0 0 0 0 0 0 0 0 0 0
0 0 0 0 0 0 3 26 39 55 48 23 13 10 3 0 0 0 0 3 3 3 0 0 0 0 0 0 0 0 0 0 0 0 0 0 0 0 0 0 0 0 0
0 0 0 0 0 0 0 0 6 6 16 6 3 0 0 0 0 0 0 0 0 3 0 0 0 0 0 0 0 0 0 0 0 0 0 0 0 0 0 0 0 0 0
0 0 0 0 0 0 0 0 0 0 0 3 3 0 0 0 0 0 0 0 0 0 0 0 0 0 0 0 0 0 0 0 0 0 0 0 0 0 0 0 0 0 0
0 0 0 0 0 0 0 0 0 0 0 0 0 0 0 0 0 0 0 0 0 0 0 0 0 0 0 0 0 0 0 0 0 0 0 0 0 0 0 0 0 0 0
0 0 0 0 0 0 0 0 0 0 0 0 0 0 0 0 0 0 0 0 0 0 0 0 0 0 0 0 0 0 0 0 0 0 0 0 0 0 0 0 0 0 0
0 0 0 0 0 0 0 0 0 0 0 0 0 0 0 0 0 0 0 0 0 0 0 0 0 0 0 0 0 0 0 0 0 0 0 0 0 0 0 0 0 0 0
0 0 0 0 0 0 0 0 0 0 0 0 0 0 0 0 0 0 0 0 0 0 0 0 0 0 0 0 0 0 0 0 0 0 0 0 0 0 0 0 0 0 0
Height
5863 5862 5861 5860 5859 5857 5857 5856 5855 5855 5854 5854 5853 5853 5852 5851 5851 5852 5854 5855 5855 5857 5859 5862 5865 5867 5869 5871 5873 5875 5876 5877 5878 5879 5880 5880 5881 5882 5883 5885 5886 5887 5888
5855 5855 5854 5853 5852 5851 5850 5850 5849 5849 5849 5848 5847 5847 5846 5845 5845 5846 5847 5847 5848 5849 5851 5854 5857 5860 5862 5865 5867 5869 5871 5872 5873 5875 5876 5877 5878 5879 5880 5881 5883 5884 5885
5849 5848 5847 5847 5846 5845 5844 5844 5843 5843 5842 5842 5841 5840 5840 5839 5840 5840 5840 5841 5842 5842 5843 5846 5849 5852 5854 5857 5860 5862 5865 5867 5868 5869 5871 5872 5874 5875 5877 5878 5879 5880 5881
5842 5842 5841 5841 5840 5839 5839 5838 5838 5837 5836 5836 5835 5834 5833 5833 5833 5833 5834 5835 5836 5837 5837 5838 5841 5843 5846 5848 5851 5854 5857 5860 5862 5864 5865 5867 5869 5870 5872 5873 5875 5876 5878
5837 5835 5835 5835 5834 5834 5833 5833 5832 5832 5831 5829 5828 5827 5827 5827 5826 5826 5827 5827 5828 5830 5830 5831 5833 5835 5837 5839 5842 5846 5849 5852 5855 5857 5859 5861 5862 5864 5866 5868 5870 5871 5873
5831 5830 5830 5830 5829 5829 5828 5828 5827 5826 5824 5823 5821 5820 5819 5819 5819 5819 5820 5820 5821 5822 5823 5824 5825 5827 5828 5830 5833 5837 5841 5844 5847 5850 5852 5854 5855 5858 5860 5862 5863 5865 5867
5826 5825 5825 5825 5825 5824 5823 5822 5821 5820 5819 5817 5815 5814 5812 5811 5811 5811 5812 5813 5814 5815 5816 5817 5817 5819 5820 5822 5824 5828 5832 5836 5839 5842 5845 5847 5848 5850 5852 5854 5856 5858 5860
5820 5820 5820 5820 5820 5819 5819 5817 5816 5814 5813 5811 5809 5807 5807 5806 5803 5803 5803 5805 5806 5807 5808 5809 5810 5811 5813 5815 5818 5821 5824 5828 5831 5834 5837 5839 5841 5843 5844 5846 5848 5850 5852
5815 5815 5815 5815 5815 5814 5813 5812 5811 5809 5808 5805 5802 5801 5800 5799 5797 5796 5795 5796 5798 5799 5800 5801 5803 5804 5806 5808 5810 5813 5816 5819 5822 5825 5828 5830 5832 5834 5836 5838 5840 5842 5844
5809 5809 5809 5809 5809 5809 5808 5807 5806 5804 5803 5800 5797 5794 5792 5791 5789 5788 5787 5787 5788 5790 5792 5793 5795 5796 5798 5799 5800 5802 5805 5810 5814 5817 5819 5822 5824 5826 5828 5829 5831 5833 5835
5803 5803 5803 5803 5803 5803 5802 5801 5800 5798 5797 5795 5792 5789 5786 5783 5781 5780 5780 5778 5779 5781 5783 5786 5787 5789 5791 5792 5792 5793 5798 5803 5806 5809 5812 5814 5816 5818 5819 5821 5822 5824 5826
5797 5797 5797 5797 5797 5797 5796 5795 5794 5792 5790 5788 5786 5784 5781 5778 5775 5772 5772 5771 5770 5772 5775 5778 5780 5782 5784 5786 5788 5789 5792 5795 5798 5801 5804 5806 5808 5809 5811 5812 5814 5815 5818
5790 5790 5790 5790 5789 5789 5789 5788 5787 5786 5784 5782 5780 5777 5775 5772 5768 5765 5764 5763 5763 5764 5767 5770 5772 5774 5776 5780 5782 5783 5785 5788 5791 5793 5796 5798 5800 5802 5803 5804 5806 5807 5809
5781 5781 5782 5782 5781 5781 5781 5781 5780 5779 5778 5776 5774 5771 5768 5765 5762 5759 5757 5756 5756 5757 5759 5762 5764 5765 5768 5772 5775 5776 5778 5781 5784 5786 5789 5791 5792 5794 5795 5797 5798 5799 5801
5772 5772 5773 5773 5773 5773 5773 5772 5772 5771 5770 5769 5767 5765 5762 5759 5756 5753 5751 5749 5749 5750 5752 5754 5757 5758 5760 5765 5768 5770 5771 5774 5777 5779 5781 5783 5785 5786 5788 5789 5790 5792 5793
5760 5761 5762 5762 5763 5763 5764 5764 5764 5763 5763 5762 5761 5759 5756 5753 5750 5747 5744 5742 5741 5742 5745 5747 5750 5752 5754 5757 5760 5763 5765 5767 5769 5771 5773 5775 5777 5778 5780 5781 5783 5784 5786
5745 5747 5749 5750 5751 5752 5753 5754 5755 5755 5755 5754 5753 5752 5749 5747 5744 5741 5738 5735 5734 5735 5737 5739 5742 5744 5747 5750 5752 5755 5758 5760 5762 5764 5766 5767 5769 5771 5773 5775 5776 5778 5779
5727 5730 5733 5736 5738 5740 5742 5743 5745 5746 5747 5746 5745 5744 5742 5741 5738 5735 5732 5729 5728 5728 5729 5731 5734 5736 5739 5741 5744 5747 5750 5752 5755 5756 5758 5760 5763 5765 5766 5768 5770 5771 5772
5707 5711 5714 5719 5723 5727 5729 5731 5734 5736 5737 5738 5737 5736 5735 5734 5732 5729 5727 5724 5722 5722 5722 5724 5726 5729 5731 5734 5737 5739 5742 5744 5747 5749 5751 5753 5756 5758 5760 5762 5763 5764 5765
5685 5689 5694 5699 5705 5710 5715 5718 5721 5724 5727 5728 5728 5728 5728 5727 5726 5724 5721 5719 5717 5717 5717 5718 5720 5722 5724 5726 5729 5731 5734 5736 5739 5742 5744 5747 5750 5752 5754 5756 5757 5758 5759
5663 5667 5672 5678 5684 5691 5697 5702 5707 5711 5715 5717 5719 5719 5719 5720 5719 5718 5716 5714 5713 5712 5712 5712 5713 5715 5717 5719 5722 5724 5727 5729 5732 5735 5738 5741 5744 5746 5748 5749 5751 5752 5753
5639 5644 5650 5656 5662 5669 5677 5684 5690 5696 5701 5705 5708 5709 5710 5712 5712 5711 5710 5709 5708 5707 5707 5707 5708 5709 5710 5712 5715 5718 5720 5723 5725 5729 5732 5735 5738 5741 5743 5744 5746 5748 5749
5614 5620 5626 5633 5641 5648 5656 5665 5672 5679 5686 5692 5696 5699 5701 5703 5704 5705 5705 5704 5703 5703 5703 5703 5704 5705 5705 5707 5709 5712 5715 5717 5720 5723 5727 5730 5734 5736 5739 5740 5742 5744 5745
5594 5597 5603 5610 5619 5628 5637 5646 5654 5662 5670 5677 5683 5688 5691 5694 5696 5697 5698 5698 5698 5698 5698 5699 5701 5701 5703 5704 5706 5709 5711 5713 5716 5719 5723 5726 5730 5733 5735 5737 5739 5740 5741
5582 5584 5586 5591 5597 5606 5615 5626 5636 5645 5654 5662 5669 5675 5680 5684 5687 5689 5691 5692 5693 5693 5694 5695 5697 5699 5700 5702 5704 5706 5708 5711 5713 5716 5720 5723 5727 5729 5731 5734 5735 5736 5737
5571 5573 5575 5577 5581 5587 5595 5605 5617 5627 5637 5647 5656 5663 5668 5673 5678 5681 5683 5685 5687 5688 5689 5691 5693 5695 5697 5699 5701 5703 5705 5708 5710 5714 5717 5721 5724 5726 5728 5730 5731 5732 5733
Wind_Speed
34 34 35 36 36 35 34 34 34 33 32 30 30 29 28 28 27 28 31 32 34 35 34 32 30 28 27 26 25 24 23 22 21 20 19 18 17 17 18 19 20 19 18
34 33 32 31 30 29 29 28 27 26 26 25 25 26 25 25 23 24 26 26 29 33 35 35 34 33 32 30 29 27 26 25 24 22 22 21 20 19 18 18 19 20 20
32 30 29 27 26 25 24 23 23 23 23 24 24 25 25 25 25 23 23 25 26 28 32 35 38 38 37 36 34 32 30 29 28 26 25 24 24 24 23 22 21 20 20
28 28 27 26 24 23 22 22 22 22 23 24 24 25 25 25 25 25 26 26 26 27 29 32 36 39 41 41 39 36 34 32 32 31 29 28 27 27 27 27 26 25 23
26 26 26 25 23 22 21 21 21 21 22 23 24 25 26 26 26 27 28 29 29 30 30 31 34 37 41 43 42 40 37 35 35 34 33 32 31 30 30 30 30 30 28
24 24 23 21 20 20 19 18 18 18 20 22 24 25 25 26 26 27 28 29 30 31 32 34 34 34 36 39 41 42 39 37 36 36 35 34 33 33 33 34 33 33 33
24 22 20 18 17 16 16 16 16 17 19 21 23 24 25 26 27 28 29 29 29 30 31 33 34 32 31 33 35 37 38 37 37 37 37 36 36 35 35 36 36 35 35
22 20 19 17 16 17 17 17 17 18 20 22 24 24 24 25 27 28 30 31 31 30 30 30 32 32 31 29 30 33 35 36 37 38 37 37 37 36 36 36 36 36 37
22 21 20 20 20 20 19 19 19 19 20 23 25 26 25 24 26 28 30 31 32 32 31 30 30 30 31 31 31 31 33 34 35 36 36 36 35 35 35 36 36 36 36
22 22 23 23 24 23 22 21 20 19 20 22 25 27 28 27 26 26 29 31 33 33 32 31 30 29 29 29 31 31 31 33 34 36 35 34 33 33 34 35 35 36 36
23 24 25 27 28 27 26 24 22 22 21 23 24 26 28 28 28 26 26 29 32 33 32 32 30 28 27 27 29 29 29 31 33 33 33 32 32 33 32 32 33 35 36
25 25 27 29 30 30 28 26 25 24 24 24 25 26 27 27 28 28 25 26 30 31 32 31 30 30 28 27 28 28 29 30 30 30 30 31 32 32 31 31 32 33 35
30 29 29 30 31 31 30 29 28 27 26 26 26 26 26 27 27 27 26 25 27 30 30 30 30 30 30 28 28 28 28 27 28 29 30 31 32 32 32 33 32 32 33
35 35 34 34 34 34 33 31 30 29 28 28 27 26 26 27 27 27 26 26 27 28 30 30 30 29 29 28 28 26 26 26 27 28 30 31 32 32 32 32 32 32 32
38 38 37 37 37 36 36 34 32 31 29 29 28 27 26 26 27 27 26 26 26 27 29 30 30 30 29 28 28 26 25 26 27 28 29 30 31 32 32 32 31 31 31
45 43 40 39 39 39 38 36 34 32 30 30 30 29 27 26 26 26 26 25 25 25 27 30 30 30 30 29 28 27 27 26 26 28 29 29 30 30 30 30 29 28 28
54 51 48 45 43 41 40 38 35 32 30 30 30 29 27 25 25 26 25 24 23 24 25 28 29 30 30 29 29 28 27 27 27 28 28 28 29 28 28 26 26 25 25
60 57 54 53 50 46 43 41 39 35 32 30 29 28 27 25 25 25 24 22 22 22 24 26 28 29 29 30 29 29 29 29 29 28 28 28 27 26 25 24 24 23 23
65 62 58 56 54 52 48 45 43 39 35 32 30 28 26 25 24 24 23 22 21 21 22 24 26 28 30 30 30 30 31 31 30 28 27 27 26 25 24 24 23 23 23
69 67 64 61 58 56 53 49 46 42 37 34 31 28 26 25 24 23 22 21 20 19 20 22 26 29 30 30 30 31 31 31 30 29 28 27 26 25 24 23 22 21 20
75 72 70 67 65 61 57 53 51 47 42 37 33 29 27 25 24 23 21 21 20 18 19 21 25 28 30 31 31 30 30 30 29 28 27 25 24 22 21 19 18 16 15
81 79 76 72 68 66 63 59 56 52 47 42 36 33 30 27 25 24 22 21 20 19 19 19 21 24 28 31 32 31 30 29 28 26 24 22 20 18 16 16 15 15 14
71 75 75 72 69 65 63 61 58 55 52 48 42 37 33 30 27 25 23 22 20 18 17 17 18 20 23 27 29 28 27 27 26 24 22 19 17 15 14 14 14 14 15
42 50 57 63 65 65 63 59 55 54 52 49 44 39 35 32 30 27 24 22 20 18 17 17 17 18 19 20 22 24 25 23 22 20 18 16 14 13 13 13 13 13 13
30 31 35 43 51 57 61 61 58 55 52 49 45 40 37 35 32 29 27 24 21 20 19 19 18 18 19 21 23 24 23 23 20 18 16 14 13 12 12 12 11 11 11
32 30 30 32 36 45 53 58 59 58 56 51 46 42 39 36 34 32 30 26 23 21 20 20 20 19 20 21 22 23 21 19 17 15 13 12 11 11 10 10 9 9 9
Wind_Direction
287 286 284 284 282 282 283 282 283 283 286 289 291 293 289 284 278 273 270 270 265 260 256 255 259 261 261 262 260 258 257 256 254 254 255 255 255 256 258 258 258 259 260
291 292 291 294 295 294 292 292 293 293 294 297 296 295 296 294 287 281 276 276 271 262 256 250 251 256 258 258 257 256 257 257 255 253 253 252 253 254 257 259 259 259 258
293 293 293 294 295 295 294 295 295 296 295 295 294 293 293 292 287 283 277 276 273 266 257 250 248 251 254 254 254 253 255 256 257 255 253 253 252 252 254 256 258 260 259
292 291 290 291 292 292 291 293 295 296 296 296 294 291 289 285 282 278 274 271 270 266 260 254 251 252 254 255 253 250 251 254 256 257 256 255 254 254 253 254 255 257 258
289 288 289 289 288 287 289 292 296 301 303 303 300 296 291 286 281 277 272 267 263 261 259 257 256 255 255 255 253 248 247 250 253 256 256 255 254 255 255 255 255 254 255
285 284 285 284 283 285 289 293 299 305 309 309 307 302 295 289 282 276 272 268 264 260 259 259 260 260 259 254 251 248 246 246 250 254 256 256 256 257 257 256 256 256 255
282 281 280 277 279 284 288 292 300 308 314 316 315 310 303 295 286 277 270 266 264 262 261 261 262 261 260 254 249 246 246 247 249 252 256 258 260 261 261 259 256 256 257
279 278 276 275 276 280 285 290 298 307 315 320 321 319 311 301 291 282 273 266 263 263 264 264 263 261 257 253 251 248 248 249 250 252 256 259 261 263 265 263 259 256 256
272 272 269 271 272 273 277 282 290 299 309 316 321 323 319 309 297 288 277 268 261 261 264 266 265 262 258 253 254 251 248 249 250 252 256 260 262 265 267 266 262 258 257
271 270 268 269 271 273 275 279 284 294 304 311 317 321 321 316 306 293 282 271 262 258 259 262 264 263 259 253 252 250 248 248 251 252 255 258 263 266 268 268 264 260 257
276 275 273 271 272 273 275 277 281 288 298 306 313 318 320 317 310 300 286 273 263 258 256 258 262 262 258 254 253 254 251 250 250 251 254 258 263 266 267 266 264 261 258
277 277 276 274 272 271 273 276 279 284 291 299 306 313 316 316 312 305 294 277 265 258 254 254 258 260 258 253 252 256 254 253 252 254 257 261 264 266 267 266 265 263 260
282 280 279 276 273 272 273 276 279 282 287 293 300 307 313 314 312 307 297 282 269 260 255 252 255 258 257 255 256 257 256 258 259 260 263 264 264 265 266 266 266 264 262
279 280 280 277 274 271 272 275 278 280 284 289 295 301 308 312 312 308 300 286 273 263 256 253 253 254 257 256 257 258 259 261 261 261 262 262 263 264 265 264 264 263 262
272 274 275 274 272 270 270 272 274 276 279 284 289 294 301 308 311 308 301 290 276 264 257 254 253 255 257 256 257 259 259 260 260 261 260 261 262 263 263 263 262 263 264
267 267 268 269 268 267 266 268 269 271 274 279 283 288 294 303 309 309 303 293 281 268 258 254 252 254 255 255 254 255 257 259 261 260 260 261 261 262 262 263 263 263 264
266 264 264 264 266 266 264 263 264 266 271 275 280 284 290 298 305 310 305 296 286 273 262 255 252 252 252 252 252 253 256 259 261 261 261 262 261 260 260 260 260 261 263
266 265 264 263 263 264 264 262 261 262 266 272 275 279 285 292 301 308 309 300 290 278 265 256 251 249 249 250 252 254 256 260 262 262 261 261 258 258 258 258 259 263 265
266 265 264 263 262 261 262 261 260 259 261 265 270 274 280 287 295 304 307 303 293 281 268 257 249 247 248 251 253 254 257 258 262 261 260 258 257 255 258 258 260 263 264
263 263 263 262 262 260 258 257 257 256 256 260 264 269 276 283 289 298 302 301 294 283 269 259 251 248 249 251 253 254 255 257 257 257 256 255 254 254 257 258 258 258 259
261 262 263 263 262 259 254 252 252 253 253 255 258 264 272 278 283 290 295 296 292 283 271 262 254 251 250 251 251 253 254 253 251 250 247 248 248 252 255 254 251 250 252
259 260 261 261 261 258 253 250 250 250 249 250 254 260 267 273 276 281 287 289 288 281 274 265 257 254 249 246 245 247 246 242 240 238 236 238 242 244 243 243 246 249 252
258 259 259 259 257 255 252 248 248 248 249 250 250 255 262 268 271 273 278 281 281 278 275 266 258 255 248 241 235 233 229 228 230 229 226 227 231 235 238 244 248 252 256
261 258 256 255 254 252 249 247 245 245 245 244 244 249 256 262 266 268 270 274 275 273 269 264 255 248 242 235 228 226 223 221 221 218 218 220 224 230 237 243 247 249 252
269 265 260 254 250 247 245 243 242 242 241 240 240 244 249 254 260 263 264 266 268 268 265 259 255 252 247 242 237 231 225 220 214 212 211 215 222 228 232 237 241 244 250
269 269 267 260 252 244 238 236 235 236 236 236 236 238 241 247 254 258 260 260 261 261 260 256 253 254 248 242 240 234 225 214 209 208 208 211 216 222 228 231 234 243 251